Weather in Vilino

Russia / Republic of Crimea     44°50′41″N   33°39′17″E
temp.,
°C
wind,
m/s
gust,
m/s
humid.,
%
clouds,
%
prec.,
mm/h
press.,
hPa
HPBL,
m
31 july, sat
sat3100:00+20ene11900 0.0 101111
03:00+20ese22800 0.0 101011
06:00+20e22740 0.0 101015
09:00+27ne23520 0.0 1011469
12:00+31nnw43340 0.0 10102391
15:00+30w64430 0.0 10101061
18:00+28w44500 0.0 1011669
21:00+23s22670 0.0 101118
1 august, sun
sun100:00+22sse22660 0.0 101219
03:00+21se22650 0.0 101211
06:00+21ese22640 0.0 101213
09:00+28nne11441 0.0 1012405
12:00+32nw44335 0.0 10122584
15:00+30w65400 0.0 10121169
18:00+28w44490 0.0 1012546
21:00+23s11700 0.0 101212
2 august, mon
mon200:00+22se22680 0.0 101212
03:00+21ese22610 0.0 101213
06:00+22ese22590 0.0 101216
09:00+29n01420 0.0 1012409
12:00+32w43350 0.0 10121857
15:00+32w43370 0.0 10111171
18:00+29wsw33430 0.0 1011466
21:00+23ssw11620 0.0 101111
3 august, tue
tue300:00+23ese22570 0.0 101114
03:00+22se33570 0.0 101123
06:00+22ssw11610 0.0 101211
09:00+27ne22462 0.0 1013476
12:00+32ne333396 0.0 10121375
15:00+32nw333686 0.0 1011839
18:00+29wnw454730 0.0 1012433
21:00+23nnw11650 0.0 101412
4 august, wed
wed400:00+22e22700 0.1 101520
03:00+21e33730 0.2 101432
06:00+21ne22745 0.0 101518
09:00+27ne11545 0.1 1015418
12:00+31nw44414 0.0 10152428
15:00+30wnw54393 0.0 10151386
18:00+28nw34470 0.0 1016687
21:00+23se22603 0.0 101512